| time (UTC) | temp F | wind direction | speed MPH | gust MPH | rain 1hr in | rain 24hr in | rain mn in | humidity % | barometer mb |
| 20260504174516 | 84 | 9 | 2.0 | 10.0 | 0.00 | 0.00 | 0.00 | 43 | 1015.7 |
| 20260504173018 | 84 | 141 | 3.0 | 9.0 | 0.00 | 0.00 | 0.00 | 44 | 1015.9 |
| 20260504171517 | 84 | 301 | 1.0 | 12.0 | 0.00 | 0.00 | 0.00 | 45 | 1016.0 |
| 20260504081529 | 65 | 9 | 1.0 | 6.0 | 0.00 | 0.02 | 0.00 | 82 | 1015.3 |
| 20260504050010 | 66 | 56 | 0.0 | 1.0 | 0.00 | 0.05 | 0.00 | 82 | 1016.3 |
| 20260504044518 | 67 | 56 | 0.0 | 0.0 | 0.00 | 0.06 | 0.00 | 81 | 1016.8 |
| 20260504043020 | 67 | 56 | 0.0 | 0.0 | 0.00 | 0.10 | 0.00 | 80 | 1017.0 |
| 20260504041523 | 67 | 56 | 0.0 | 0.0 | 0.00 | 0.11 | 0.00 | 79 | 1017.1 |
| 20260504040007 | 68 | 55 | 0.0 | 0.0 | 0.00 | 0.12 | 0.00 | 78 | 1017.1 |
| 20260504034511 | 68 | 44 | 0.0 | 2.0 | 0.00 | 0.13 | 0.12 | 78 | 1017.0 |
| 20260504033020 | 69 | 45 | 0.0 | 0.0 | 0.00 | 0.13 | 0.12 | 77 | 1017.0 |
| 20260504031521 | 69 | 38 | 0.0 | 0.0 | 0.00 | 0.13 | 0.12 | 77 | 1016.9 |
| 20260504030034 | 69 | 38 | 0.0 | 2.0 | 0.00 | 0.14 | 0.12 | 77 | 1016.9 |
| 20260504024512 | 69 | 76 | 0.0 | 2.0 | 0.00 | 0.14 | 0.12 | 77 | 1016.8 |
| 20260504023015 | 69 | 67 | 1.0 | 3.0 | 0.00 | 0.14 | 0.12 | 77 | 1016.8 |
| 20260504021516 | 70 | 65 | 2.0 | 4.0 | 0.00 | 0.14 | 0.12 | 76 | 1016.5 |
| 20260504020034 | 70 | 54 | 1.0 | 3.0 | 0.00 | 0.14 | 0.12 | 75 | 1016.5 |
| 20260504014526 | 71 | 63 | 0.0 | 2.0 | 0.00 | 0.14 | 0.12 | 74 | 1016.4 |
| 20260504013011 | 71 | 69 | 0.0 | 2.0 | 0.00 | 0.14 | 0.12 | 73 | 1016.2 |
| 20260504011514 | 72 | 60 | 0.0 | 2.0 | 0.00 | 0.14 | 0.12 | 72 | 1016.2 |
| 20260504010022 | 72 | 59 | 0.0 | 2.0 | 0.00 | 0.14 | 0.12 | 71 | 1016.0 |
| 20260504004538 | 73 | 63 | 1.0 | 3.0 | 0.00 | 0.14 | 0.12 | 70 | 1015.7 |
| 20260504003007 | 74 | 59 | 0.0 | 1.0 | 0.00 | 0.14 | 0.12 | 68 | 1015.4 |
| 20260504001529 | 74 | 78 | 0.0 | 3.0 | 0.00 | 0.14 | 0.12 | 67 | 1015.1 |
| 20260504000019 | 75 | 77 | 0.0 | 4.0 | 0.00 | 0.14 | 0.12 | 66 | 1015.1 |
| 20260503234527 | 76 | 56 | 0.0 | 2.0 | 0.00 | 0.14 | 0.12 | 64 | 1015.2 |
| 20260503233023 | 76 | 69 | 0.0 | 5.0 | 0.00 | 0.14 | 0.12 | 63 | 1015.0 |
| 20260503231513 | 77 | 40 | 1.0 | 6.0 | 0.00 | 0.14 | 0.12 | 61 | 1015.0 |
| 20260503230022 | 78 | 41 | 1.0 | 6.0 | 0.00 | 0.15 | 0.12 | 61 | 1015.0 |
| 20260503224522 | 78 | 52 | 1.0 | 8.0 | 0.00 | 0.16 | 0.12 | 60 | 1014.9 |
| 20260503223027 | 78 | 57 | 1.0 | 4.0 | 0.00 | 0.16 | 0.12 | 60 | 1014.9 |
| 20260503221531 | 79 | 40 | 2.0 | 7.0 | 0.00 | 0.18 | 0.12 | 57 | 1014.9 |
| 20260503220027 | 80 | 105 | 1.0 | 4.0 | 0.00 | 0.20 | 0.12 | 58 | 1014.8 |
| 20260503214529 | 79 | 60 | 0.0 | 4.0 | 0.00 | 0.20 | 0.12 | 58 | 1014.9 |
| 20260503213032 | 80 | 63 | 3.0 | 6.0 | 0.00 | 0.21 | 0.12 | 56 | 1014.9 |
| 20260503211526 | 80 | 10 | 2.0 | 5.0 | 0.00 | 0.21 | 0.12 | 55 | 1014.8 |
| 20260503210028 | 81 | 32 | 1.0 | 5.0 | 0.00 | 0.22 | 0.12 | 54 | 1014.9 |
| 20260503204525 | 81 | 45 | 4.0 | 10.0 | 0.00 | 0.22 | 0.12 | 53 | 1015.1 |
| 20260503203025 | 80 | 32 | 2.0 | 9.0 | 0.00 | 0.22 | 0.12 | 55 | 1015.2 |
| 20260503201525 | 80 | 46 | 2.0 | 8.0 | 0.00 | 0.22 | 0.12 | 55 | 1015.2 |
| 20260503200028 | 80 | 85 | 3.0 | 8.0 | 0.00 | 0.39 | 0.12 | 59 | 1015.5 |
| 20260503194529 | 79 | 78 | 2.0 | 10.0 | 0.00 | 0.63 | 0.12 | 57 | 1015.7 |
| 20260503193022 | 78 | 9 | 2.0 | 13.0 | 0.00 | 0.64 | 0.12 | 59 | 1016.0 |
| 20260503191524 | 78 | 360 | 0.0 | 8.0 | 0.00 | 0.64 | 0.12 | 61 | 1016.2 |
| 20260503190038 | 79 | 47 | 3.0 | 9.0 | 0.00 | 0.64 | 0.12 | 60 | 1016.4 |
| 20260503184527 | 79 | 70 | 2.0 | 8.0 | 0.00 | 0.64 | 0.12 | 60 | 1016.6 |
| 20260503183020 | 78 | 333 | 4.0 | 11.0 | 0.00 | 0.64 | 0.12 | 59 | 1016.9 |
| 20260503181541 | 78 | 91 | 2.0 | 10.0 | 0.00 | 0.64 | 0.12 | 61 | 1017.0 |
| 20260503180040 | 78 | 78 | 3.0 | 9.0 | 0.00 | 0.64 | 0.12 | 63 | 1017.1 |